Weather History for KFAM - January, 2014

Change the Weather History Date:

Thursday, January 30, 2014

  Actual Average (KCGI) Record (KCGI)
Temperature  
Mean Temperature 30 °F 34 °F  
Max Temperature 42 °F 44 °F 63 °F (1967)
Min Temperature 19 °F 25 °F -5 °F (1966)
Degree Days  
Heating Degree Days 34 31  
Month to date heating degree days 955  
Since 1 July heating degree days 2706  
Cooling Degree Days 0 0  
Month to date cooling degree days 0  
Year to date cooling degree days 0  
Moisture  
Dew Point 10 °F    
Average Humidity 44    
Maximum Humidity 68    
Minimum Humidity 23    
Precipitation  
Precipitation 0.00 in 0.12 in 4.81 in (1982)
Month to date precipitation 3.34  
Year to date precipitation 3.34  
Sea Level Pressure  
Sea Level Pressure 29.98 in    
Wind  
Wind Speed 14 mph (South)    
Max Wind Speed 32 mph    
Max Gust Speed 43 mph    
Visibility 10 miles    
Events      
T = Trace of Precipitation, MM = Missing Value Source: NWS Daily Summary

Daily Weather History Graph

Daily Weather History Graph

Search for Another Location

Airport or City:

Trip Planner

Search our weather history database for the weather conditions in past years. The results will help you decide how hot, cold, wet, or windy it might be!

Date:

Astronomy

Jan. 30, 2014 Rise Set
Actual Time 7:07 AM CST 5:23 PM CST
Civil Twilight 6:39 AM CST 5:50 PM CST
Nautical Twilight 6:08 AM CST 6:22 PM CST
Astronomical Twilight 5:37 AM CST 6:53 PM CST
Moon 6:34 AM CST (1/30) 5:34 PM CST (1/30)
Length of Visible Light 11h 11m
Length of Day
10h 15m
Waning Crescent, 0% of the Moon is Illuminated
Jan 30
Waning Crescent
Jan 30
New
Feb 6
First Quarter
Feb 14
Full
Feb 22
Last Quarter

Hourly Weather History & Observations

Time (CST) Temp. Windchill Dew Point Humidity Pressure Visibility Wind Dir Wind Speed Gust Speed Precip Events Conditions
12:15 AM 23.0 °F 11.7 °F 6.8 °F 50% 30.14 in 10.0 mi South 11.5 mph 18.4 mph N/A   Clear
12:35 AM 21.2 °F 10.1 °F 6.8 °F 54% 30.13 in 10.0 mi South 10.4 mph - N/A   Clear
12:55 AM 21.2 °F 10.9 °F 6.8 °F 54% 30.13 in 10.0 mi South 9.2 mph - N/A   Clear
1:15 AM 21.2 °F 12.6 °F 8.6 °F 58% 30.12 in 10.0 mi South 6.9 mph - N/A   Clear
1:35 AM 21.2 °F 12.6 °F 8.6 °F 58% 30.12 in 10.0 mi SSE 6.9 mph - N/A   Clear
1:55 AM 21.2 °F 10.9 °F 8.6 °F 58% 30.11 in 10.0 mi South 9.2 mph - N/A   Clear
2:15 AM 21.2 °F 9.5 °F 8.6 °F 58% 30.09 in 10.0 mi South 11.5 mph 17.3 mph N/A   Clear
2:35 AM 21.2 °F 9.5 °F 8.6 °F 58% 30.09 in 10.0 mi South 11.5 mph 17.3 mph N/A   Clear
2:55 AM 21.2 °F 9.5 °F 8.6 °F 58% 30.09 in 10.0 mi South 11.5 mph - N/A   Clear
3:15 AM 21.2 °F 8.9 °F 8.6 °F 58% 30.08 in 10.0 mi South 12.7 mph 19.6 mph N/A   Clear
3:35 AM 21.2 °F 8.9 °F 8.6 °F 58% 30.08 in 10.0 mi South 12.7 mph 19.6 mph N/A   Clear
3:55 AM 21.2 °F 10.1 °F 8.6 °F 58% 30.08 in 10.0 mi South 10.4 mph - N/A   Clear
4:15 AM 21.2 °F 8.9 °F 8.6 °F 58% 30.06 in 10.0 mi South 12.7 mph 19.6 mph N/A   Clear
4:35 AM 21.2 °F 8.3 °F 8.6 °F 58% 30.06 in 10.0 mi South 13.8 mph 20.7 mph N/A   Clear
4:55 AM 21.2 °F 9.5 °F 8.6 °F 58% 30.06 in 10.0 mi South 11.5 mph - N/A   Clear
5:15 AM 19.4 °F 5.5 °F 8.6 °F 63% 30.04 in 10.0 mi South 15.0 mph - N/A   Clear
5:35 AM 21.2 °F 9.5 °F 8.6 °F 58% 30.03 in 10.0 mi South 11.5 mph 21.9 mph N/A   Clear
5:55 AM 21.2 °F 8.9 °F 10.4 °F 63% 30.06 in 10.0 mi SSW 12.7 mph 18.4 mph N/A   Clear
6:15 AM 19.4 °F 7.2 °F 8.6 °F 63% 30.06 in 10.0 mi South 11.5 mph - N/A   Clear
6:35 AM 19.4 °F 6.6 °F 10.4 °F 68% 30.05 in 10.0 mi South 12.7 mph 17.3 mph N/A   Clear
6:55 AM 19.4 °F 5.5 °F 10.4 °F 68% 30.02 in 10.0 mi South 15.0 mph - N/A   Clear
7:15 AM 21.2 °F 7.8 °F 10.4 °F 63% 30.02 in 10.0 mi South 15.0 mph 21.9 mph N/A   Clear
7:35 AM 21.2 °F 6.4 °F 10.4 °F 63% 30.01 in 10.0 mi South 18.4 mph 24.2 mph N/A   Clear
7:55 AM 21.2 °F 7.3 °F 10.4 °F 63% 30.02 in 10.0 mi South 16.1 mph 21.9 mph N/A   Clear
8:15 AM 21.2 °F 7.8 °F 10.4 °F 63% 30.01 in 10.0 mi South 15.0 mph 24.2 mph N/A   Clear
8:35 AM 23.0 °F 8.3 °F 10.4 °F 59% 30.01 in 10.0 mi South 19.6 mph 26.5 mph N/A   Clear
8:55 AM 24.8 °F 10.0 °F 10.4 °F 54% 30.00 in 10.0 mi South 21.9 mph 27.6 mph N/A   Clear
9:15 AM 24.8 °F 10.3 °F 10.4 °F 54% 29.98 in 10.0 mi South 20.7 mph 29.9 mph N/A   Clear
9:35 AM 26.6 °F 12.7 °F 10.4 °F 51% 29.97 in 10.0 mi South 20.7 mph 29.9 mph N/A   Clear
9:55 AM 28.4 °F 14.4 °F 10.4 °F 47% 29.94 in 10.0 mi South 23.0 mph 29.9 mph N/A   Clear
10:15 AM 30.2 °F 14.9 °F 10.4 °F 44% 29.93 in 10.0 mi South 31.1 mph 40.3 mph N/A   Clear
10:35 AM 33.8 °F 22.5 °F 12.2 °F 41% 29.95 in 10.0 mi South 19.6 mph 28.8 mph N/A   Clear
10:55 AM 35.6 °F 23.4 °F 12.2 °F 38% 29.92 in 10.0 mi South 25.3 mph 32.2 mph N/A   Clear
11:15 AM 35.6 °F 23.2 °F 10.4 °F 35% 29.90 in 10.0 mi South 26.5 mph 34.5 mph N/A   Clear
11:35 AM 37.4 °F 25.9 °F 10.4 °F 33% 29.90 in 10.0 mi South 25.3 mph 33.4 mph N/A   Clear
11:55 AM 39.2 °F 28.7 °F 10.4 °F 31% 29.88 in 10.0 mi South 23.0 mph 32.2 mph N/A   Clear
12:15 PM 39.2 °F 27.0 °F 6.8 °F 26% 29.86 in 10.0 mi South 32.2 mph 42.6 mph N/A   Clear
12:35 PM 41.0 °F 30.5 °F 8.6 °F 26% 29.86 in 10.0 mi South 26.5 mph 33.4 mph N/A   Clear
12:55 PM 41.0 °F 30.5 °F 6.8 °F 24% 29.86 in 10.0 mi South 26.5 mph 33.4 mph N/A   Clear
1:15 PM 42.8 °F 33.3 °F 8.6 °F 25% 29.87 in 10.0 mi South 24.2 mph 32.2 mph N/A   Clear
1:35 PM 42.8 °F 33.5 °F 8.6 °F 25% 29.86 in 10.0 mi South 23.0 mph 35.7 mph N/A   Clear
1:55 PM 42.8 °F 33.3 °F 6.8 °F 23% 29.87 in 10.0 mi SSW 24.2 mph 32.2 mph N/A   Clear
2:15 PM 39.2 °F 29.6 °F 6.8 °F 26% 29.86 in 10.0 mi South 19.6 mph 29.9 mph N/A   Clear
2:35 PM 39.2 °F 30.8 °F 8.6 °F 28% 29.86 in 10.0 mi South 15.0 mph 32.2 mph N/A   Clear
2:55 PM 39.2 °F 28.3 °F 8.6 °F 28% 29.86 in 10.0 mi South 25.3 mph 29.9 mph N/A   Clear
3:15 PM 39.2 °F 28.7 °F 8.6 °F 28% 29.86 in 10.0 mi South 23.0 mph 28.8 mph N/A   Clear
3:35 PM 37.4 °F 27.8 °F 8.6 °F 30% 29.88 in 10.0 mi South 17.3 mph 27.6 mph N/A   Clear
3:55 PM 37.4 °F 28.5 °F 8.6 °F 30% 29.89 in 10.0 mi SSW 15.0 mph 26.5 mph N/A   Clear
4:15 PM 37.4 °F 28.2 °F 8.6 °F 30% 29.90 in 10.0 mi SSW 16.1 mph 21.9 mph N/A   Clear
4:35 PM 37.4 °F 28.5 °F 10.4 °F 33% 29.90 in 10.0 mi South 15.0 mph - N/A   Clear
4:55 PM 37.4 °F 29.8 °F 10.4 °F 33% 29.90 in 10.0 mi South 11.5 mph 18.4 mph N/A   Clear
5:15 PM 37.4 °F 30.3 °F 10.4 °F 33% 29.91 in 10.0 mi South 10.4 mph - N/A   Clear
5:35 PM 35.6 °F 27.5 °F 10.4 °F 35% 29.91 in 10.0 mi South 11.5 mph - N/A   Clear
5:55 PM 35.6 °F 27.1 °F 10.4 °F 35% 29.92 in 10.0 mi South 12.7 mph - N/A   Clear
6:15 PM 35.6 °F 27.1 °F 10.4 °F 35% 29.93 in 10.0 mi South 12.7 mph - N/A   Clear
6:35 PM 35.6 °F 27.5 °F 10.4 °F 35% 29.93 in 10.0 mi South 11.5 mph - N/A   Clear
6:55 PM 35.6 °F 27.5 °F 10.4 °F 35% 29.93 in 10.0 mi South 11.5 mph - N/A   Clear
7:15 PM 33.8 °F 25.3 °F 10.4 °F 38% 29.94 in 10.0 mi South 11.5 mph 17.3 mph N/A   Clear
7:35 PM 33.8 °F 25.8 °F 12.2 °F 41% 29.95 in 10.0 mi South 10.4 mph - N/A   Clear
7:55 PM 33.8 °F 24.3 °F 12.2 °F 41% 29.96 in 10.0 mi South 13.8 mph 19.6 mph N/A   Clear
8:15 PM 33.8 °F 24.8 °F 12.2 °F 41% 29.96 in 10.0 mi South 12.7 mph 20.7 mph N/A   Clear
8:35 PM 35.6 °F 26.2 °F 12.2 °F 38% 29.97 in 10.0 mi SSW 15.0 mph - N/A   Clear
8:55 PM 35.6 °F 27.5 °F 12.2 °F 38% 29.98 in 10.0 mi SSW 11.5 mph - N/A   Clear
9:15 PM 35.6 °F 27.5 °F 12.2 °F 38% 29.98 in 10.0 mi SSW 11.5 mph 19.6 mph N/A   Clear
9:35 PM 35.6 °F 28.0 °F 12.2 °F 38% 29.99 in 10.0 mi SSW 10.4 mph - N/A   Clear
9:55 PM 35.6 °F 28.0 °F 12.2 °F 38% 29.98 in 10.0 mi SSW 10.4 mph - N/A   Clear
10:15 PM 35.6 °F 27.5 °F 12.2 °F 38% 29.98 in 10.0 mi SSW 11.5 mph - N/A   Clear
10:35 PM 33.8 °F 26.4 °F 12.2 °F 41% 29.99 in 10.0 mi SSW 9.2 mph - N/A   Clear
10:55 PM 33.8 °F 26.4 °F 12.2 °F 41% 29.99 in 10.0 mi SSW 9.2 mph - N/A   Clear
11:15 PM 33.8 °F 27.7 °F 12.2 °F 41% 29.99 in 10.0 mi South 6.9 mph - N/A   Clear
11:35 PM 33.8 °F 29.6 °F 12.2 °F 41% 29.98 in 10.0 mi South 4.6 mph - N/A   Clear
11:55 PM 33.8 °F 28.6 °F 12.2 °F 41% 29.97 in 10.0 mi South 5.8 mph - N/A   Clear